Regional Weather Roundup
Issued by NWS Binghamton, NY

Home | Current Version | Previous Version | Text Only | Print | Product List | Glossary On
Versions: 1 2 3 4 5 6 7 8 9 10 11 12 13 14 15 16 17 18 19 20 21 22 23 24 25 26 27 28 29 30 31 32 33 34 35 36 37 38 39 40 41 42 43 44 45 46 47 48 49 50
000
ASUS41 KBGM 030410
RWRBGM
RWRBGM
BINGHAMTON REGIONAL WEATHER ROUNDUP
NATIONAL WEATHER SERVICE BINGHAMTON NY
1200 AM EDT WED SEP 03 2014

Note: "fair" indicates few or no clouds below 12,000 feet with no
significant weather and/or obstructions to visibility.

* = Station(s) that does not report precipitation, such as rain,
snow, etc, also no thunder or fog.

!NYZ009-015>018-022>025-036-037-044>046-055>057-062-030500
...CENTRAL NEW YORK...

CITY           SKY/WX    TMP DP  RH WIND       PRES   REMARKS
BINGHAMTON     MOCLDY    64  63  96 W3        29.92S
CORTLAND       CLOUDY    64  64 100 CALM      29.93R
DANSVILLE      MOCLDY    63  62  97 SE3       29.94R
ELMIRA         FOG       61  61 100 W5        29.92R VSB 1/2
ITHACA         CLOUDY    65  64  96 CALM      29.93R
MONTICELLO     CLOUDY    66  64  94 W10G18    29.89R
NORWICH        MOCLDY    61  61 100 CALM      29.91S
PENN YAN       MOCLDY    65  63  93 SW5       29.92R
ROME           CLOUDY    64  62  93 W8        29.89R
SIDNEY         PTCLDY    63  63 100 CALM      29.90S
SYRACUSE       MOCLDY    66  65  96 SW7       29.88R
$$

!PAZ038>040-043-044-047-048-072-030500
...NORTHEAST PENNSYLVANIA...

CITY           SKY/WX    TMP DP  RH WIND       PRES   REMARKS
HAZLETON       MOCLDY    68  66  94 W5        29.97S
SCRANTON       CLOUDY    72  64  76 W5        29.91R
TOWANDA*       CLEAR     64  64 100 CALM      29.92S
$$
&&
KEY
WCI = WIND CHILL INDEX
VSB = VISIBILITY
HX  = HEAT INDEX
$$


USA.gov is the U.S. government's official web portal to all federal, state and local government web resources and services.